Regional Weather Roundup
Issued by NWS

Home | Current Version | Previous Version | Graphics & Text | Print | Product List | Glossary Off
Versions: 1 2 3 4 5 6 7 8 9 10 11 12 13 14 15 16 17 18 19 20 21 22 23 24 25 26 27 28 29 30 31 32 33 34 35 36 37 38 39 40 41 42 43 44 45 46 47 48 49 50

000
ASUS43 KFSD 290110
RWRSD

WEATHER ROUNDUP FOR SOUTH DAKOTA
NATIONAL WEATHER SERVICE SIOUX FALLS SD
800 PM CDT WED JUN 28 2017

NOTE: "FAIR" INDICATES FEW OR NO CLOUDS BELOW 12,000 FEET WITH NO
SIGNIFICANT WEATHER AND/OR OBSTRUCTIONS TO VISIBILITY.


SDZ001>005-009-010-012>017-290200-
NORTHWEST AND NORTH CENTRAL SOUTH DAKOTA

CITY           SKY/WX    TMP DP  RH WIND       PRES   REMARKS
BUFFALO          N/A     78  28  16 E9        29.70R
FAITH            N/A     78  32  18 NE7       29.75R
MOBRIDGE       SUNNY     82  38  20 N8        29.68R
$$

SDZ012>016-024>037-041>051-057-063-072>074-290200-
SOUTHWEST AND SOUTH CENTRAL SOUTH DAKOTA

CITY           SKY/WX    TMP DP  RH WIND       PRES   REMARKS
RAPID CTY ARPT PTSUNNY   68  54  60 N21G28    29.79R
PIERRE         SUNNY     83  40  21 N8        29.68R
CUSTER         MOSUNNY   66  47  50 NE20G29   29.87R
ELLSWORTH AFB  CLOUDY    69  51  51 NW20      29.79
PHILIP         MOSUNNY   79  52  38 E3        29.72R
PINE RIDGE     CLOUDY    81  50  33 SE14      29.73S
SPEARFISH      FAIR      63  52  67 CALM      29.85S
WINNER         FAIR      84  50  30 N6        29.71R
$$

SDZ004>011-016>023-039-040-290200-
NORTHEAST SOUTH DAKOTA

CITY           SKY/WX    TMP DP  RH WIND       PRES   REMARKS
ABERDEEN       SUNNY     78  44  29 NW14      29.66R
WATERTOWN      SUNNY     76  51  41 N12       29.65R
BROOKINGS      SUNNY     79  59  50 N12       29.64R
SISSETON         N/A     75  62  64 N14       29.62R
$$

SDZ017-020-022-023-036>040-048>070-290200-
SOUTHEAST SOUTH DAKOTA

CITY           SKY/WX    TMP DP  RH WIND       PRES   REMARKS
SIOUX FALLS    MOSUNNY   81  62  52 NW9       29.63R
HURON          SUNNY     82  44  26 NW9       29.65R
CHAMBERLAIN    SUNNY     85  49  29 NW6       29.69R
MITCHELL       SUNNY     85  50  29 N9        29.65R
YANKTON        SUNNY     83  62  49 NW8       29.65R
$$

ABBREVIATIONS USED IN REMARKS
   TC - TEMPERATURE IN CELSIUS
  WCI - WIND CHILL INDEX
   HX - HEAT INDEX
  VSB - VISIBILITY





USA.gov is the U.S. government's official web portal to all federal, state and local government web resources and services.